GW4463 Weather Reports


time (UTC)temp
F
wind
direction
speed
knots
gust
knots
rain 1hr
in
rain 24hr
in
rain mn
in
humidity
%
barometer
mb
20260502210339 54 270 0.0 0.0 0.03 0.04 0.03 90 1014.1
20260502205816 54 270 0.0 0.0 0.01 0.03 0.01 90 1014.1
20260502205252 54 270 0.0 0.0 0.01 0.03 0.01 89 1014.2
20260502204729 54 270 0.0 0.0 0.01 0.03 0.01 88 1014.2
20260502204205 54 270 0.0 0.0 0.00 0.01 0.00 88 1014.2
20260502203642 55 270 0.0 0.0 0.00 0.01 0.00 86 1014.2
20260502202844 55 270 0.0 0.0 0.00 0.01 0.00 85 1014.2
20260502202047 55 270 0.0 0.0 0.00 0.01 0.00 85 1014.2
20260502201522 55 270 0.0 0.0 0.00 0.01 0.00 84 1014.2
20260502200958 56 270 0.0 0.0 0.00 0.01 0.00 84 1014.2
20260502200435 56 270 0.0 0.0 0.00 0.01 0.00 83 1014.2
20260502195637 56 270 0.0 0.0 0.00 0.01 0.00 82 1014.1
20260502194839 56 270 0.0 0.0 0.00 0.01 0.00 82 1014.0
20260502194316 56 270 0.0 0.0 0.00 0.01 0.00 81 1014.0
20260502193751 57 270 0.0 0.0 0.00 0.01 0.00 79 1014.0
20260502192445 57 270 0.0 0.0 0.00 0.01 0.00 78 1014.0
20260502191921 57 270 0.0 0.0 0.00 0.01 0.00 77 1014.0
20260502191357 57 270 0.0 0.0 0.00 0.01 0.00 78 1014.0
20260502190834 57 270 0.0 0.0 0.00 0.01 0.00 77 1014.0
20260502190310 58 270 0.0 0.0 0.00 0.01 0.00 77 1014.1
20260502185238 58 270 0.0 0.0 0.00 0.01 0.00 76 1014.0
20260502184714 57 270 0.0 0.0 0.00 0.01 0.00 76 1014.1
20260502184150 58 270 0.0 0.0 0.00 0.01 0.00 76 1014.2
20260502183351 58 270 0.0 0.0 0.00 0.01 0.00 76 1014.2
20260502182828 58 270 0.0 0.0 0.00 0.01 0.00 76 1014.2
20260502182305 58 270 0.0 0.0 0.00 0.01 0.00 76 1014.3
20260502181740 58 270 0.0 0.0 0.00 0.01 0.00 76 1014.3
20260502180941 58 270 0.0 0.0 0.00 0.01 0.00 76 1014.3
20260502180144 58 270 0.0 0.0 0.00 0.01 0.00 77 1014.4
20260502170518 59 248 3.5 3.5 0.00 0.01 0.00 76 1014.5
20260502071237 51 270 3.5 4.3 0.00 0.01 0.00 91 1018.5
20260502070714 51 292 3.5 4.3 0.00 0.01 0.00 91 1018.4
20260502070150 51 270 4.3 5.2 0.00 0.01 0.00 91 1018.4
20260502065627 51 248 0.0 0.0 0.00 0.01 0.00 91 1018.4
20260502065104 51 270 4.3 4.3 0.00 0.01 0.00 91 1018.4
20260502064541 51 292 5.2 5.2 0.00 0.01 0.00 91 1018.4
20260502063742 51 292 5.2 5.2 0.00 0.01 0.00 91 1018.4
20260502062945 51 292 5.2 5.2 0.00 0.01 0.00 91 1018.3
20260502062422 51 202 2.6 3.5 0.00 0.01 0.00 91 1018.3
20260502061859 51 292 5.2 6.1 0.00 0.01 0.00 91 1018.2
20260502061336 51 292 4.3 4.3 0.00 0.01 0.00 91 1018.3
20260502060813 50 292 6.1 6.1 0.00 0.01 0.00 92 1018.4
20260502060249 50 292 2.6 2.6 0.00 0.01 0.00 92 1018.3
20260502055726 50 292 4.3 4.3 0.00 0.01 0.00 92 1018.3
20260502055203 51 292 3.5 4.3 0.00 0.01 0.00 92 1018.3
20260502054640 51 292 7.0 7.0 0.00 0.01 0.00 92 1018.3
20260502054116 51 270 4.3 5.2 0.00 0.01 0.00 91 1018.3
20260502053554 51 225 5.2 5.2 0.00 0.01 0.00 91 1018.3
20260502053031 51 225 1.7 1.7 0.00 0.01 0.00 91 1018.3
20260502052507 51 292 3.5 5.2 0.00 0.01 0.00 91 1018.3
20260502051944 51 292 4.3 4.3 0.00 0.01 0.00 91 1018.3
20260502051421 51 270 5.2 5.2 0.00 0.01 0.00 91 1018.3
20260502050858 51 292 6.1 6.1 0.00 0.01 0.00 91 1018.3
20260502050335 51 248 3.5 3.5 0.00 0.01 0.00 91 1018.2
20260502045812 51 270 4.3 4.3 0.00 0.01 0.00 91 1018.3
20260502045249 51 248 1.7 1.7 0.00 0.01 0.00 91 1018.3
20260502044726 51 292 6.1 6.1 0.00 0.01 0.00 92 1018.3
20260502044203 50 292 2.6 2.6 0.00 0.01 0.00 92 1018.2
20260502043405 50 270 4.3 4.3 0.00 0.01 0.00 92 1018.2
20260502042842 50 292 4.3 4.3 0.00 0.01 0.00 92 1018.2
20260502042319 50 292 2.6 2.6 0.00 0.01 0.00 92 1018.3
20260502041756 50 292 0.0 0.0 0.00 0.01 0.00 92 1018.3
20260502041233 50 225 0.9 0.9 0.00 0.01 0.00 92 1018.3
20260502040710 50 248 0.0 0.0 0.00 0.01 0.00 92 1018.2
20260502040147 50 270 0.9 0.9 0.00 0.01 0.00 92 1018.3
20260502035624 50 292 3.5 3.5 0.00 0.01 0.00 93 1018.3